Regional Weather Roundup
Issued by NWS

Home | Current Version | Previous Version | Text Only | Print | Product List | Glossary Off
Versions: 1 2 3 4 5 6 7 8 9 10 11 12 13 14 15 16 17 18 19 20 21 22 23 24 25 26 27 28 29 30 31 32 33 34 35 36 37 38 39 40 41 42 43 44 45 46 47 48 49 50

000
ASUS43 KFSD 230802
RWRSD

WEATHER ROUNDUP FOR SOUTH DAKOTA
NATIONAL WEATHER SERVICE SIOUX FALLS SD
300 AM CDT THU OCT 23 2014

NOTE: "FAIR" INDICATES FEW OR NO CLOUDS BELOW 12,000 FEET WITH NO
SIGNIFICANT WEATHER AND/OR OBSTRUCTIONS TO VISIBILITY.


SDZ001>005-009-010-012>017-230900-
NORTHWEST AND NORTH CENTRAL SOUTH DAKOTA

CITY           SKY/WX    TMP DP  RH WIND       PRES   REMARKS
FAITH            N/A     42  30  62 SW13      29.98S
MOBRIDGE       CLEAR     41  36  82 E5        29.94S
$$

SDZ012>016-024>037-041>051-057-063-072>074-230900-
SOUTHWEST AND SOUTH CENTRAL SOUTH DAKOTA

CITY           SKY/WX    TMP DP  RH WIND       PRES   REMARKS
RAPID CTY ARPT CLEAR     42  33  70 NW8       30.02S
PIERRE         CLEAR     44  35  70 S6        29.98S
CUSTER         CLEAR     37  23  56 W3        30.07S
ELLSWORTH AFB  CLEAR     43  31  62 SW5       30.01F
PHILIP         CLEAR     32  29  88 NW5       30.01S WCI  27
PINE RIDGE     CLEAR     32  28  85 CALM      30.04F
SPEARFISH      FAIR      45  25  45 CALM      30.02F
WINNER         FAIR      50  39  66 SW9       30.03R
$$

SDZ004>011-016>023-039-040-230900-
NORTHEAST SOUTH DAKOTA

CITY           SKY/WX    TMP DP  RH WIND       PRES   REMARKS
ABERDEEN       CLEAR     38  36  92 SW5       29.95S
WATERTOWN      CLEAR     43  43 100 SE5       29.98S FOG
$$

SDZ017-020-022-023-036>040-048>070-230900-
SOUTHEAST SOUTH DAKOTA

CITY           SKY/WX    TMP DP  RH WIND       PRES   REMARKS
SIOUX FALLS    FOG       47  47 100 S3        30.02R VSB 1/4
HURON          CLEAR     43  42  97 S6        29.98S
CHAMBERLAIN    CLEAR     41  37  87 CALM      30.01S
MITCHELL       FOG       43  43 100 SW3       30.01S VSB 3/4
YANKTON        MOCLDY    45  43  93 CALM      30.03R VSB 1/2
$$

ABBREVIATIONS USED IN REMARKS
   TC - TEMPERATURE IN CELSIUS
  WCI - WIND CHILL INDEX
   HX - HEAT INDEX
  VSB - VISIBILITY




USA.gov is the U.S. government's official web portal to all federal, state and local government web resources and services.